星链-5289 (STARLINK-5289 )

导读 | 豆包AI

STARLINK-5289是美国太空探索技术公司(SpaceX)星链互联网卫星星座中的一颗卫星,于2023年1月19日发射入轨。星链项目旨在通过近地轨道卫星群提供全球高速互联网接入服务,这颗卫星加入星座后,进一步拓展了星链系统的全球覆盖能力,助力提升网络服务的稳定性与容量。

Basic Information
目录编号:
55278
目录名称:
STARLINK-5289
国际标识:
2023-010K
轨道中心:
EARTH
卫星名称:
星链-5289
卫星全名:
星链-5289 (STARLINK-5289 )
卫星状态:
在轨 (已飞行1151 天)
发射日期:
2023-01-19 UTC
国别 :
美国 (US)
星等 :
--
Orbit Information
数据来源 国际轨道数据 AOE轨道数据
星历时间 2026-03-15T14:30:06+0800
6小时前
查看轨道信息
2026-03-14T16:00:00+0800
1天前
查看轨道信息
半长轴 6950.182km 6950.176km
偏心率 0.0002926 0.0002953
轨道倾角 70.001° 70.000°
近地点辐角 271.970° 283.887°
升交点赤经 30.316° 32.680°
平近点角 88.112° 60.378°
近地点 570.011km 569.986km
远地点 574.079km 574.092km
周期 96.107分钟 96.107分钟
每日圈数 14.983336 14.983356
Detailed Information
固有亮度:
5
最大亮度:
2.5
卫星平台:
Starlink v1.5
覆盖范围:
全球
运营商:
太空探索技术公司
运营商所在国:
美国
制造商(研发单位):
太空探索技术公司
制造商所在国:
美国
使用方式:
暂无
Satellite Introduction
星链(Starlink)计划是由太空探索技术公司(SpaceX)提出的一个巨型低轨卫星互联网星座项目,计划在2019年至2024年间在太空搭建由约1.2万颗卫星组成的“星链”网络,其中1584颗将部署在地球上空550千米处的近地轨道,并从2020年开始工作。该卫星仍在工作。
2D Orbit Map
3D Orbit Map
Orbit Altitude Analysis Chart
Orbit Inclination Analysis Chart
Orbit Comprehensive Analysis Chart
View Comprehensive Chart